This is the latest recevied weather packets stored in our database for station/object OK1ALX-6. If no packets are shown the sender has not sent any weather packets the latest 10 day(s).
| Time | Temp. | Humidity | Pressure | Rain* | Wind** | Luminosity | Snow |
|---|---|---|---|---|---|---|---|
| 1777457403 | 11.11° C | 38% | 1031.7 hPa | 0 mm | - | 671 W/m² | - |
| 1777456803 | 11.11° C | 39% | 1031.5 hPa | 0 mm | - | 673 W/m² | - |
| 1777456203 | 11.11° C | 39% | 1031.8 hPa | 0 mm | - | 685 W/m² | - |
| 1777455603 | 11.11° C | 38% | 1031.6 hPa | 0 mm | - | 659 W/m² | - |
| 1777455009 | 11.11° C | 37% | 1031.7 hPa | 0 mm | - | 690 W/m² | - |
| 1777454403 | 10.56° C | 38% | 1031.7 hPa | 0 mm | - | 654 W/m² | - |
| 1777453803 | 10.56° C | 39% | 1031.9 hPa | 0 mm | - | 638 W/m² | - |
| 1777453203 | 10° C | 42% | 1031.8 hPa | 0 mm | - | 636 W/m² | - |
| 1777452603 | 10° C | 40% | 1031.9 hPa | 0 mm | - | 614 W/m² | - |
| 1777452003 | 10° C | 40% | 1031.9 hPa | 0 mm | - | 622 W/m² | - |
| 1777451403 | 9.44° C | 41% | 1032 hPa | 0 mm | - | 596 W/m² | - |
| 1777450803 | 10° C | 39% | 1031.7 hPa | 0 mm | - | 594 W/m² | - |
| 1777450203 | 9.44° C | 42% | 1031.8 hPa | 0 mm | - | 576 W/m² | - |
| 1777449604 | 9.44° C | 43% | 1031.8 hPa | 0 mm | - | 562 W/m² | - |
| 1777449003 | 8.89° C | 46% | 1032 hPa | 0 mm | - | 535 W/m² | - |
| 1777448403 | 8.33° C | 46% | 1032.2 hPa | 0 mm | - | 525 W/m² | - |
| 1777447803 | 8.33° C | 45% | 1032.1 hPa | 0 mm | - | 465 W/m² | - |
| 1777447203 | 8.33° C | 45% | 1031.9 hPa | 0 mm | - | 413 W/m² | - |
| 1777446603 | 8.33° C | 45% | 1031.9 hPa | 0 mm | - | 386 W/m² | - |
| 1777446003 | 7.78° C | 44% | 1031.9 hPa | 0 mm | - | 331 W/m² | - |
| 1777445403 | 8.33° C | 45% | 1031.9 hPa | 0 mm | - | 293 W/m² | - |
| 1777444803 | 7.78° C | 45% | 1031.9 hPa | 0 mm | - | 272 W/m² | - |
| 1777444203 | 7.22° C | 48% | 1031.9 hPa | 0 mm | - | 238 W/m² | - |
| 1777443603 | 6.11° C | 49% | 1032.1 hPa | 0 mm | - | 206 W/m² | - |
| 1777443003 | 6.11° C | 50% | 1032.3 hPa | 0 mm | - | 178 W/m² | - |
* Rain latest hour (hover to see other rain measurements)
** Current wind speed in m/s (hover to see current wind gust speed)